Location: Fort Wayne
(41.1310°N, 85.1290°W)
Time: 16:27:20
(UTC-05:00)

BREEZE-M DEB (TANK) - Visible Passes

Search period start: 17 December 2014 00:00
Search period end: 27 December 2014 00:00
Orbit: 284 x 13606 km, 49.6° (Epoch: 17 December)

Date Brightness Start Highest point End Pass type
(mag) Time Alt. Az. Time Alt. Az. Time Alt. Az.
17 Dec 5.4 06:05:09 28° W 06:10:48 46° SW 06:47:43 10° SSE visible
18 Dec 5.6 03:20:47 41° E 03:20:47 41° E 03:34:35 10° ESE visible
19 Dec 4.8 04:51:28 63° SW 04:52:08 64° SW 05:21:58 10° SE visible
20 Dec 6.8 02:07:01 15° E 02:07:01 15° E 02:09:38 10° E visible
20 Dec 5.8 06:22:08 21° W 06:29:16 36° SW 07:04:17 10° SSE visible
21 Dec 5.5 03:37:38 50° ESE 03:37:38 50° ESE 03:55:06 10° SE visible
22 Dec 5.2 05:08:11 48° WSW 05:09:43 50° SW 05:40:40 10° SSE visible
23 Dec 6.6 02:23:37 21° E 02:23:37 21° E 02:29:17 10° ESE visible
23 Dec 6.2 06:38:42 15° W 06:47:29 27° SW 07:18:13 10° S visible
24 Dec 5.4 03:54:05 53° SSE 03:54:05 53° SSE 04:14:36 10° SE visible
25 Dec 5.6 05:24:30 36° WSW 05:27:06 39° SW 05:57:26 10° SSE visible
26 Dec 6.4 02:39:49 26° ESE 02:39:49 26° ESE 02:48:27 10° ESE visible
26 Dec 6.6 06:55:23 10° W 07:05:23 20° SW 07:28:57 10° S visible
26 Dec 5.0 19:14:14 10° SSE 19:15:32 11° SSE 19:15:33 11° SSE visible
